This demonstration page uses our WeatherBlox Daily Observations layout. Learn more.

Left ArrowRight Arrow

31.84235, -102.49876

Hourly Observations for November 18, 2015

Temp ( °F °C ) Dew Point ( °F °C ) Humidity (%) Winds ( mph kmh ) Pressure ( in mb ) Visibility ( mi km ) Precip ( " mm )
12:53 am 00:53 Clear 45 7.2 30 -1.1 56 56 W 12 19 29.76 1008 10 16 0.00 0.00
1:53 am 01:53 Clear 44 6.7 30 -1.1 58 58 WNW 10 17 29.76 1008 10 16 0.00 0.00
2:53 am 02:53 undefined 44 6.7 29 -1.7 55 55 WNW 8 13 29.75 1008 10 16 0.00 0.00
3:53 am 03:53 Clear 41 5 30 -1.1 65 65 W 5 7 29.76 1008 10 16 0.00 0.00
4:53 am 04:53 Clear 38 3.3 30 -1.1 73 73 W 5 7 29.78 1008 10 16 0.00 0.00
5:53 am 05:53 Clear 39 3.9 30 -1.1 70 70 WNW 7 11 29.78 1008 10 16 0.00 0.00
6:53 am 06:53 undefined 37 2.8 30 -1.1 76 76 SSW 7 11 29.80 1009 10 16 0.00 0.00
7:53 am 07:53 Sunny 39 3.9 30 -1.1 70 70 SW 6 9 29.81 1010 10 16 0.00 0.00
8:53 am 08:53 Sunny 47 8.3 29 -1.7 50 50 SW 12 19 29.81 1009 10 16 0.00 0.00
9:53 am 09:53 Sunny 54 12.2 27 -2.8 35 35 W 12 19 29.79 1009 10 16 0.00 0.00
10:53 am 10:53 Sunny 56 13.3 29 -1.7 36 36 WSW 14 22 29.78 1009 10 16 0.00 0.00
11:53 am 11:53 Sunny 60 15.6 26 -3.3 27 27 W 16 26 29.77 1008 10 16 0.00 0.00
12:53 pm 12:53 Sunny 63 17.2 26 -3.3 25 25 W 15 24 29.73 1007 10 16 0.00 0.00
1:53 pm 13:53 Sunny 68 20 27 -2.8 21 21 WSW 14 22 29.70 1006 10 16 0.00 0.00
2:53 pm 14:53 Sunny 69 20.6 25 -3.9 19 19 W 20 31 29.67 1005 10 16 0.00 0.00
3:53 pm 15:53 Sunny 69 20.6 25 -3.9 19 19 WSW 18 30 29.67 1005 10 16 0.00 0.00
4:53 pm 16:53 Sunny 68 20 26 -3.3 21 21 W 16 26 29.70 1006 10 16 0.00 0.00
5:53 pm 17:53 Clear 63 17.2 28 -2.2 27 27 W 6 9 29.72 1007 10 16 0.00 0.00
6:53 pm 18:53 Clear 58 14.4 30 -1.1 35 35 SW 6 9 29.76 1008 10 16 0.00 0.00
7:53 pm 19:53 Clear 57 13.9 30 -1.1 36 36 SW 8 13 29.80 1009 10 16 0.00 0.00
8:53 pm 20:53 Clear 53 11.7 30 -1.1 41 41 WSW 7 11 29.83 1010 10 16 0.00 0.00
9:53 pm 21:53 Clear 49 9.4 31 -0.6 50 50 W 6 9 29.86 1011 10 16 0.00 0.00
10:53 pm 22:53 Clear 48 8.9 31 -0.6 52 52 SW 3 6 29.89 1012 10 16 0.00 0.00
11:53 pm 23:53 Clear 57 13.9 28 -2.2 33 33 N 15 24 29.89 1012 10 16 0.00 0.00

Powered by AerisWeather